Wind_Speed
9 8 8 9 10 10 10 10 10 10 10 10 11 11 10 10 10 9 9 9 9 9 8 7 7 6 6 6 5 5 4 3 4 3 3 3 3 4 3 3 3 3 4
9 8 8 8 9 10 9 9 9 9 9 9 9 10 10 9 9 9 9 8 8 8 8 7 6 6 6 5 5 5 4 4 4 4 3 3 3 3 3 3 3 3 3
9 8 7 8 8 9 9 9 9 8 9 8 8 9 9 9 9 8 8 7 7 7 7 6 6 5 5 4 5 5 4 4 4 3 3 2 2 3 3 2 3 2 2
8 8 8 8 8 8 8 8 8 8 8 8 8 8 8 8 8 7 7 6 6 6 6 6 6 5 4 4 5 4 3 3 3 3 3 2 2 2 2 2 2 2 2
8 8 8 8 8 8 8 8 8 7 7 7 7 7 7 7 7 6 6 6 5 5 6 6 5 5 4 4 4 3 3 2 2 3 3 2 1 1 1 1 1 2 2
7 7 7 7 7 7 7 7 7 7 7 7 7 6 7 6 6 6 5 5 5 5 5 5 5 4 4 4 4 3 2 2 2 2 2 2 1 1 2 1 1 1 1
7 7 7 7 6 6 6 7 6 6 6 6 7 7 7 6 6 5 5 5 5 5 5 5 4 4 4 4 3 3 2 2 1 2 1 1 1 1 1 1 1 1 1
7 7 7 7 6 6 6 6 6 6 6 6 6 7 6 6 5 5 5 5 5 5 5 4 4 4 4 3 3 3 2 1 1 1 1 1 1 1 0 0 0 1 1
7 7 7 7 6 6 6 5 5 5 5 5 5 5 6 5 5 5 5 4 4 5 4 4 4 4 3 3 3 2 2 2 1 1 1 1 1 1 0 1 0 0 0
6 6 6 6 5 5 5 5 5 5 4 5 5 5 5 5 5 5 5 4 4 4 4 4 4 4 3 3 2 2 2 1 1 0 0 1 1 1 0 0 0 1 1
5 5 6 6 5 5 4 4 5 4 4 4 4 4 4 4 4 4 4 4 4 4 4 3 3 3 3 2 2 1 1 1 0 0 0 0 1 1 0 0 1 1 1
5 5 5 5 5 5 4 4 4 4 4 3 3 4 4 4 4 4 4 3 3 3 3 3 2 2 2 1 1 1 0 0 0 0 0 0 0 0 1 1 1 1 1
5 5 5 5 4 4 4 4 4 4 3 3 3 3 3 4 4 4 3 3 2 2 2 2 1 1 1 1 1 1 0 1 1 1 1 0 0 0 1 1 1 1 1
6 5 4 4 4 3 3 3 3 4 3 3 4 3 3 3 3 3 3 2 2 1 1 1 1 1 0 1 1 1 1 1 1 1 1 1 1 1 2 2 2 2 3
5 4 4 3 3 2 2 2 2 2 3 3 3 3 3 3 3 3 2 1 1 0 1 1 0 0 1 2 2 2 2 2 1 1 2 2 2 2 2 3 3 3 3
4 3 3 3 2 2 2 3 2 3 2 3 2 2 2 2 2 2 1 1 0 0 0 1 1 1 2 2 2 2 2 2 2 2 2 2 3 3 3 4 4 4 4
4 3 2 2 2 1 1 2 2 2 2 2 2 2 2 2 1 2 1 1 0 1 1 2 1 2 2 3 3 3 3 2 2 3 3 3 3 3 4 4 4 4 5
4 4 2 2 2 2 2 1 2 3 3 2 2 2 2 2 1 1 1 0 1 1 2 2 2 3 2 3 3 3 3 3 3 4 4 4 4 4 5 5 5 5 6
4 4 3 3 2 2 2 1 1 2 2 1 2 2 2 1 1 1 1 1 2 2 2 3 3 3 3 4 4 4 4 4 4 4 4 4 5 5 6 6 6 6 6
4 3 3 2 2 2 1 1 1 1 1 1 1 1 1 1 1 1 1 2 2 3 3 4 4 4 4 4 5 5 5 5 5 5 6 6 6 6 7 7 7 7 7
3 3 3 3 2 2 1 1 1 0 0 1 1 1 1 1 2 2 2 2 3 3 4 4 4 5 5 5 5 5 5 5 6 6 7 8 8 8 8 7 7 7 8
2 3 3 3 3 2 2 2 1 1 1 1 1 2 2 3 3 3 3 3 4 4 4 5 5 6 6 7 7 7 7 7 7 7 7 8 8 8 8 8 8 8 9
3 4 3 3 4 4 3 3 3 3 3 2 2 3 4 4 4 4 4 5 5 5 5 6 7 7 8 9 9 9 9 9 9 9 9 10 10 10 10 10 10 10 10
5 5 5 5 5 4 5 5 5 5 5 5 5 6 6 6 6 6 6 6 7 8 8 9 9 10 10 11 11 11 12 12 12 12 12 12 12 12 12 12 12 12 13
6 6 6 6 6 6 6 7 7 7 7 7 7 7 7 7 7 7 8 9 9 10 10 11 11 12 12 13 13 13 13 13 14 14 14 14 14 14 14 14 15 15 14
8 8 8 7 7 7 7 7 7 8 8 8 8 8 9 8 9 9 10 10 11 12 13 13 13 13 14 15 14 14 14 15 15 15 15 15 16 16 16 17 17 17 17
Wind_Direction
108 113 111 112 112 111 111 109 108 110 111 109 109 107 108 110 112 113 110 110 112 112 113 114 111 113 113 115 113 111 108 107 119 129 123 117 117 112 107 106 107 112 118
110 113 112 113 116 115 113 110 108 108 110 110 110 106 109 113 113 114 113 109 110 109 111 110 108 106 109 111 110 113 104 100 107 120 124 122 127 128 121 117 124 117 122
116 113 115 118 116 118 116 114 111 109 108 111 111 108 109 110 113 113 116 112 109 107 108 110 108 106 111 113 112 110 101 100 101 120 123 129 131 138 130 127 131 130 134
115 112 118 121 117 119 122 120 116 115 113 117 119 114 110 111 114 115 118 116 112 108 108 108 106 106 102 109 113 107 103 104 101 114 131 137 132 129 115 117 127 139 147
114 116 122 125 121 117 117 118 119 123 125 125 127 121 112 110 113 115 119 118 116 114 115 111 109 105 99 114 113 103 106 108 102 121 130 134 129 116 89 108 102 144 158
120 122 125 125 122 116 115 116 120 125 125 125 131 129 116 115 114 114 118 115 113 114 118 114 112 107 108 122 114 100 100 102 100 109 132 128 111 105 93 74 78 127 161
122 125 129 129 125 119 118 118 120 124 124 121 128 133 119 117 119 114 116 116 113 114 116 117 114 110 107 110 109 98 93 86 104 114 128 149 135 116 82 41 53 97 132
126 130 131 130 126 126 124 121 120 121 124 124 129 130 124 124 127 121 120 121 116 123 127 128 126 124 117 112 109 104 96 78 78 115 135 152 148 144 75 309 132 108 77
126 132 131 129 127 128 127 123 122 122 124 128 130 134 128 125 128 123 124 124 124 127 129 130 129 125 129 119 111 107 94 77 74 115 141 169 174 165 220 225 222 133 70
126 130 130 133 130 128 132 131 126 120 118 122 126 133 123 117 116 125 127 123 120 125 124 122 120 117 123 121 116 101 77 65 56 75 207 225 216 211 215 200 253 229 287
127 132 134 131 125 127 133 137 133 125 116 115 125 128 121 118 121 128 123 120 120 118 120 119 116 115 117 117 114 103 75 42 5 54 27 233 236 217 193 242 302 290 295
126 127 132 133 124 116 114 122 129 125 119 122 128 130 128 124 124 128 125 121 121 123 118 122 122 117 117 98 81 94 96 275 223 248 297 211 255 256 244 263 298 317 331
127 127 128 123 120 116 117 118 118 117 113 121 127 131 129 133 137 139 143 138 129 121 121 125 122 106 115 64 22 355 279 246 276 281 275 260 288 296 307 301 288 293 299
124 126 128 121 115 111 115 117 123 125 121 118 122 130 132 129 139 143 145 140 140 107 91 119 104 79 331 343 4 354 341 303 297 294 288 274 279 305 315 310 305 296 290
120 130 135 128 118 120 128 130 129 147 136 131 134 126 123 137 152 155 145 148 160 40 55 60 86 335 287 301 325 335 319 317 309 304 309 294 283 291 311 314 317 310 298
106 121 137 136 128 137 148 151 139 136 132 123 131 119 133 142 154 153 145 130 172 355 325 315 291 302 305 305 318 322 310 300 298 299 307 304 294 300 300 300 299 300 300
85 100 121 131 125 118 142 162 157 141 127 123 117 109 117 133 145 149 122 106 52 353 339 306 292 296 296 291 297 301 307 301 293 300 304 302 296 295 296 294 293 299 302
72 72 82 101 104 100 118 125 129 119 123 134 141 129 124 131 141 161 141 140 322 338 333 323 311 304 300 293 298 300 305 306 301 302 301 296 298 298 294 290 288 290 296
58 57 64 74 82 79 81 92 108 117 131 134 138 154 155 149 151 204 231 272 294 311 317 318 309 307 304 303 302 302 302 303 302 298 293 291 294 297 295 294 293 290 290
49 45 46 52 59 47 44 68 98 139 136 167 150 170 195 227 254 267 281 281 301 314 317 310 303 303 306 303 295 295 298 300 301 299 295 290 288 291 294 294 292 292 289
32 28 22 19 16 14 11 28 41 285 281 221 208 218 237 278 297 296 298 283 305 308 314 315 310 304 300 295 293 291 291 293 296 297 296 294 291 289 291 293 292 291 289
8 357 347 337 329 328 331 314 297 276 278 282 244 249 272 286 289 302 299 307 307 305 306 308 312 311 308 301 295 293 293 294 295 297 299 297 295 294 291 289 290 292 292
317 322 325 319 315 308 310 310 297 282 279 273 280 276 280 286 290 298 309 308 303 302 302 303 304 304 306 306 301 294 291 290 292 293 292 292 291 291 290 288 286 288 291
295 300 303 302 305 305 306 302 295 291 285 279 281 281 282 284 284 289 295 302 303 306 303 303 305 301 303 303 300 297 291 289 288 290 291 292 290 288 287 287 287 288 288
288 289 292 293 296 298 295 292 290 288 287 288 289 285 286 285 283 287 293 296 300 302 302 300 302 301 301 301 297 293 290 289 288 287 287 289 289 287 288 286 285 285 286
281 285 287 287 290 293 295 293 287 283 286 287 285 284 285 290 289 287 292 293 295 298 299 298 300 299 298 298 294 290 289 289 291 290 287 287 287 287 287 287 286 284 282
Height
5901 5901 5901 5901 5900 5901 5901 5901 5901 5901 5901 5901 5901 5901 5901 5902 5902 5902 5903 5903 5903 5904 5904 5904 5904 5905 5905 5905 5905 5905 5905 5905 5905 5905 5905 5905 5904 5904 5904 5904 5904 5904 5904
5902 5902 5902 5902 5902 5902 5902 5902 5902 5902 5902 5902 5902 5902 5903 5903 5903 5904 5904 5904 5905 5905 5905 5905 5905 5906 5906 5906 5906 5906 5906 5906 5906 5905 5905 5905 5905 5905 5905 5905 5904 5904 5904
5903 5903 5903 5903 5903 5903 5903 5903 5903 5903 5903 5903 5903 5904 5904 5904 5904 5905 5905 5905 5906 5906 5906 5906 5906 5907 5907 5907 5907 5907 5907 5907 5906 5906 5906 5906 5905 5905 5905 5905 5905 5905 5905
5904 5904 5904 5904 5904 5904 5904 5904 5904 5904 5904 5904 5905 5905 5905 5905 5905 5906 5906 5906 5906 5907 5907 5907 5907 5907 5907 5908 5908 5908 5908 5907 5907 5907 5907 5906 5906 5906 5906 5906 5905 5905 5905
5904 5905 5905 5905 5905 5905 5905 5905 5905 5905 5905 5905 5905 5906 5906 5906 5906 5906 5907 5907 5907 5907 5908 5908 5908 5908 5908 5908 5908 5908 5908 5908 5908 5908 5907 5907 5907 5906 5906 5906 5906 5906 5905
5906 5906 5906 5906 5906 5906 5906 5906 5906 5906 5906 5906 5906 5906 5907 5907 5907 5907 5907 5907 5908 5908 5908 5909 5909 5909 5909 5909 5909 5909 5909 5909 5908 5908 5908 5908 5907 5907 5907 5906 5906 5906 5906
5906 5906 5907 5907 5907 5907 5907 5907 5907 5907 5907 5907 5906 5907 5907 5907 5907 5908 5908 5908 5909 5909 5909 5909 5909 5909 5909 5909 5909 5909 5909 5909 5909 5908 5908 5908 5908 5907 5907 5907 5906 5906 5906
5907 5907 5907 5908 5908 5908 5908 5908 5908 5908 5907 5907 5907 5908 5908 5908 5908 5908 5909 5909 5909 5909 5909 5910 5910 5910 5910 5910 5910 5910 5910 5909 5909 5909 5908 5908 5908 5908 5908 5907 5907 5906 5906
5908 5908 5908 5908 5909 5909 5909 5909 5909 5908 5908 5908 5908 5908 5909 5909 5909 5909 5909 5910 5910 5910 5910 5910 5910 5910 5910 5910 5910 5910 5910 5910 5909 5909 5909 5908 5908 5908 5908 5907 5907 5906 5906
5909 5909 5909 5909 5909 5909 5909 5909 5909 5909 5909 5909 5909 5909 5909 5910 5910 5910 5910 5910 5910 5910 5910 5910 5910 5910 5910 5910 5910 5910 5910 5910 5909 5909 5909 5909 5908 5908 5908 5907 5907 5906 5906
5909 5910 5910 5910 5910 5910 5910 5910 5910 5910 5910 5909 5909 5909 5909 5910 5910 5910 5910 5910 5910 5911 5911 5911 5911 5911 5910 5910 5910 5910 5910 5910 5909 5909 5909 5909 5908 5908 5908 5907 5907 5906 5906
5910 5910 5911 5911 5911 5911 5910 5910 5910 5910 5910 5910 5910 5910 5910 5910 5911 5911 5911 5911 5911 5911 5911 5911 5911 5911 5910 5910 5910 5910 5909 5909 5909 5909 5909 5908 5908 5908 5908 5907 5907 5906 5906
5911 5911 5911 5912 5911 5911 5911 5911 5910 5910 5910 5910 5910 5910 5911 5911 5911 5911 5911 5911 5911 5911 5911 5911 5911 5910 5910 5910 5910 5909 5909 5909 5909 5909 5909 5908 5908 5908 5907 5907 5907 5906 5906
5912 5912 5912 5912 5912 5912 5912 5911 5911 5910 5910 5911 5911 5911 5911 5911 5911 5912 5911 5911 5911 5911 5911 5911 5911 5911 5911 5910 5910 5909 5909 5909 5909 5909 5908 5908 5908 5908 5907 5907 5906 5906 5905
5913 5913 5913 5913 5913 5913 5912 5912 5912 5911 5911 5911 5911 5911 5911 5912 5912 5912 5912 5912 5912 5912 5911 5911 5911 5911 5910 5910 5910 5909 5909 5909 5908 5908 5908 5907 5907 5907 5907 5906 5906 5905 5905
5914 5914 5914 5914 5913 5913 5913 5913 5912 5912 5912 5912 5912 5912 5912 5912 5912 5912 5912 5912 5912 5912 5911 5911 5911 5910 5910 5910 5910 5909 5909 5909 5908 5908 5907 5907 5906 5906 5906 5906 5905 5905 5904
5915 5914 5914 5914 5914 5914 5913 5913 5912 5912 5912 5912 5912 5912 5912 5912 5912 5912 5912 5912 5912 5911 5911 5911 5911 5910 5910 5910 5909 5909 5908 5908 5908 5907 5907 5906 5906 5905 5905 5904 5904 5903 5903
5916 5915 5915 5915 5915 5914 5914 5913 5913 5912 5912 5912 5912 5912 5912 5912 5912 5912 5912 5912 5912 5911 5911 5911 5910 5910 5910 5909 5909 5909 5908 5908 5907 5907 5906 5905 5905 5904 5904 5903 5903 5902 5902
5917 5916 5916 5915 5915 5915 5914 5914 5913 5913 5913 5913 5913 5913 5913 5912 5912 5912 5912 5912 5912 5911 5911 5910 5910 5910 5909 5909 5908 5908 5907 5907 5906 5906 5905 5904 5904 5903 5903 5902 5901 5901 5900
5918 5917 5917 5916 5915 5915 5914 5914 5914 5913 5913 5913 5913 5913 5913 5912 5912 5911 5911 5911 5911 5911 5910 5910 5909 5909 5909 5908 5907 5907 5906 5906 5905 5905 5904 5903 5903 5902 5901 5900 5900 5899 5899
5919 5918 5918 5917 5916 5915 5915 5914 5914 5913 5913 5913 5913 5912 5912 5912 5911 5911 5911 5910 5910 5910 5910 5909 5909 5908 5907 5907 5906 5906 5905 5904 5904 5903 5903 5902 5901 5901 5900 5899 5898 5897 5897
5920 5919 5918 5917 5916 5916 5915 5914 5914 5913 5913 5913 5912 5912 5912 5911 5911 5910 5910 5910 5909 5909 5909 5908 5908 5907 5906 5905 5905 5904 5904 5904 5902 5902 5901 5900 5899 5899 5898 5897 5896 5896 5895
5920 5919 5918 5917 5916 5915 5915 5914 5914 5913 5913 5912 5912 5912 5911 5911 5910 5910 5909 5909 5908 5908 5907 5907 5906 5906 5905 5904 5903 5903 5902 5901 5901 5900 5899 5898 5898 5897 5896 5896 5895 5894 5892
5919 5918 5918 5917 5916 5915 5914 5914 5913 5912 5912 5912 5911 5911 5910 5910 5910 5909 5909 5908 5907 5907 5906 5905 5905 5904 5903 5902 5901 5900 5899 5899 5898 5898 5897 5896 5895 5894 5894 5893 5892 5891 5890
5918 5917 5917 5916 5915 5914 5913 5912 5912 5911 5911 5910 5910 5910 5909 5909 5908 5908 5907 5907 5906 5905 5904 5903 5902 5901 5900 5899 5898 5897 5896 5895 5894 5894 5893 5893 5892 5891 5890 5889 5889 5888 5887
5917 5916 5915 5915 5914 5913 5912 5911 5910 5910 5909 5909 5908 5908 5907 5907 5907 5906 5906 5905 5904 5903 5902 5901 5900 5899 5898 5896 5895 5894 5893 5892 5891 5890 5889 5889 5888 5887 5886 5886 5885 5884 5883